GW2282 Weather Reports


time (UTC)temp
F
wind
direction
speed
knots
gust
knots
rain 1hr
in
rain 24hr
in
rain mn
in
humidity
%
barometer
mb
20260505194608 75 270 3.5 9.6 0.00 0.00 0.00 50 1011.5
20260505193029 74 264 3.5 7.8 0.00 0.00 0.00 52 1011.6
20260505190030 72 263 4.3 9.6 0.00 0.00 0.00 53 1011.7
20260505184535 71 261 4.3 9.6 0.00 0.00 0.00 54 1011.8
20260505180107 69 273 4.3 10.4 0.00 0.00 0.00 58 1011.8
20260505174530 68 257 5.2 10.4 0.00 0.00 0.00 59 1011.8
20260505173030 67 263 5.2 9.6 0.00 0.00 0.00 60 1011.8
20260505171534 66 261 4.3 9.6 0.00 0.00 0.00 62 1011.8
20260505170029 66 257 5.2 12.2 0.00 0.00 0.00 63 1011.8
20260505164531 64 263 4.3 9.6 0.00 0.00 0.00 65 1011.8
20260505163032 64 260 5.2 11.3 0.00 0.00 0.00 67 1011.8
20260505161535 62 259 4.3 10.4 0.00 0.00 0.00 69 1011.7
20260505151533 59 266 6.1 13.0 0.00 0.00 0.00 75 1011.3
20260505130111 52 248 3.5 7.8 0.00 0.00 0.00 84 1010.0
20260505124650 52 254 3.5 7.8 0.00 0.00 0.00 83 1009.9
20260505123031 53 252 3.5 7.8 0.00 0.00 0.00 82 1009.7
20260505121535 54 253 3.5 7.0 0.00 0.00 0.00 81 1009.6
20260505120030 54 250 4.3 7.8 0.00 0.00 0.00 81 1009.5
20260505114528 55 251 3.5 8.7 0.00 0.00 0.00 80 1009.5
20260505113032 56 258 3.5 9.6 0.00 0.00 0.00 80 1009.4
20260505100033 57 268 4.3 8.7 0.00 0.00 0.00 81 1008.7
20260505094606 57 251 3.5 9.6 0.00 0.00 0.00 81 1008.6
20260505093037 57 260 4.3 8.7 0.00 0.00 0.00 80 1008.5
20260505091535 57 263 3.5 7.8 0.00 0.00 0.00 80 1008.5
20260505084531 57 256 3.5 8.7 0.00 0.00 0.00 79 1008.5
20260505083035 58 257 4.3 8.7 0.00 0.00 0.00 78 1008.5
20260505081535 58 255 4.3 8.7 0.00 0.00 0.00 77 1008.4
20260505080031 58 256 4.3 8.7 0.00 0.00 0.00 75 1008.4
20260505074530 59 251 3.5 7.8 0.00 0.00 0.00 74 1008.4
20260505071537 60 259 4.3 7.8 0.00 0.00 0.00 71 1008.2
20260505070030 60 265 3.5 6.1 0.00 0.00 0.00 69 1008.0
20260505063028 61 252 4.3 8.7 0.00 0.00 0.00 66 1008.0
20260505061535 62 261 4.3 9.6 0.00 0.00 0.00 66 1007.9
20260505060030 62 263 4.3 7.0 0.00 0.00 0.00 66 1007.8
20260505054531 62 259 4.3 9.6 0.00 0.00 0.00 65 1007.7
20260505053031 62 259 3.5 9.6 0.00 0.00 0.00 64 1007.8
20260505051537 63 260 4.3 8.7 0.00 0.00 0.00 63 1007.7
20260505041530 64 255 4.3 8.7 0.00 0.00 0.00 63 1007.2
20260505040042 64 257 3.5 7.8 0.00 0.00 0.00 62 1007.0
20260505034534 65 249 3.5 5.2 0.00 0.00 0.00 60 1006.8
20260505030034 69 261 3.5 8.7 0.00 0.00 0.00 55 1006.3
20260505024533 70 264 3.5 8.7 0.00 0.00 0.00 53 1006.1
20260505023030 72 256 4.3 9.6 0.00 0.00 0.00 51 1006.0
20260505021531 72 258 5.2 10.4 0.00 0.00 0.00 50 1006.0
20260505020107 74 258 5.2 13.0 0.00 0.00 0.00 47 1006.0
20260505014532 77 261 6.1 12.2 0.00 0.00 0.00 44 1006.0
20260505011530 77 262 5.2 12.2 0.00 0.00 0.00 43 1006.0
20260505004530 79 259 5.2 10.4 0.00 0.00 0.00 40 1006.1
20260505001535 81 267 6.1 11.3 0.00 0.00 0.00 35 1006.1
20260505000108 82 273 5.2 9.6 0.00 0.00 0.00 34 1006.2
20260504234533 82 258 4.3 11.3 0.00 0.00 0.00 35 1006.1
20260504233149 82 269 4.3 8.7 0.00 0.00 0.00 35 1006.2
20260504231530 83 287 4.3 8.7 0.00 0.00 0.00 36 1006.3
20260504230045 83 275 4.3 11.3 0.00 0.00 0.00 35 1006.4
20260504224536 83 294 3.5 7.8 0.00 0.00 0.00 34 1006.6
20260504223031 84 289 3.5 7.8 0.00 0.00 0.00 33 1006.7
20260504221536 85 314 3.5 6.1 0.00 0.00 0.00 32 1006.8
20260504220033 84 273 0.9 4.3 0.00 0.00 0.00 33 1006.9
20260504214536 83 350 2.6 6.1 0.00 0.00 0.00 34 1007.1
20260504213033 82 353 2.6 12.2 0.00 0.00 0.00 34 1007.2
20260504211535 82 302 2.6 6.1 0.00 0.00 0.00 34 1007.3
20260504210034 82 184 1.7 5.2 0.00 0.00 0.00 34 1007.4
20260504203031 82 47 1.7 6.1 0.00 0.00 0.00 35 1007.7
20260504200140 82 250 0.9 5.2 0.00 0.00 0.00 37 1008.0